Weather History for Creston, IA

Change the Weather History Date:

Wednesday, January 15, 2014

  Actual Average Record
Temperature  
Mean Temperature 21 °F -  
Max Temperature 30 °F 30 °F 57 °F (2006)
Min Temperature 12 °F 12 °F -18 °F (1972)
Degree Days  
Heating Degree Days 44    
Moisture  
Dew Point 10 °F    
Average Humidity 63    
Maximum Humidity 86    
Minimum Humidity 34    
Precipitation  
Precipitation 0.00 in - - ()
Sea Level Pressure  
Sea Level Pressure 30.02 in    
Wind  
Wind Speed 13 mph (WSW)    
Max Wind Speed 20 mph    
Max Gust Speed 29 mph    
Visibility 10 miles    
Events Snow    
Averages and records for this station are not official NWS values.
T = Trace of Precipitation, MM = Missing Value Source: NWS Daily Summary

Daily Weather History Graph

Daily Weather History Graph

Search for Another Location

Airport:

Trip Planner

Search our weather history database for the weather conditions in past years. The results will help you decide how hot, cold, wet, or windy it might be!

Date:

Astronomy

Jan. 15, 2014 Rise Set
Actual Time 7:40 AM CST 5:14 PM CST
Civil Twilight 7:09 AM CST 5:44 PM CST
Nautical Twilight 6:36 AM CST 6:18 PM CST
Astronomical Twilight 6:03 AM CST 6:51 PM CST
Moon 5:12 PM CST (1/15) 6:56 AM CST (1/15)
Length of Visible Light 10h 34m
Length of Day
9h 33m
Full, 100% of the Moon is Illuminated
Jan 15
Full
Jan 15
Full
Jan 23
Last Quarter
Jan 30
New
Feb 6
First Quarter

Hourly Weather History & Observations

Time (CST) Temp. Windchill Dew Point Humidity Pressure Visibility Wind Dir Wind Speed Gust Speed Precip Events Conditions
12:15 AM 21.2 °F 6.8 °F 14.0 °F 74% 30.14 in 6.0 mi NNW 17.3 mph 23.0 mph N/A Snow Light Snow
12:35 AM 19.4 °F 4.1 °F 12.2 °F 74% 30.14 in 10.0 mi NNW 18.4 mph 28.8 mph N/A   Overcast
12:55 AM 19.4 °F 5.5 °F 12.2 °F 74% 30.14 in 10.0 mi NNW 15.0 mph 24.2 mph N/A Snow Light Snow
1:15 AM 19.4 °F 3.6 °F 12.2 °F 74% 30.14 in 10.0 mi NW 19.6 mph - N/A Snow Light Snow
1:35 AM 19.4 °F 8.6 °F 14.0 °F 80% 30.14 in 3.0 mi North 9.2 mph 19.6 mph N/A Snow Light Snow
1:55 AM 17.6 °F 4.3 °F 14.0 °F 86% 30.15 in 3.0 mi NNE 12.7 mph - N/A Snow Light Snow
2:15 AM 17.6 °F 5.0 °F 12.2 °F 79% 30.15 in 5.0 mi North 11.5 mph 17.3 mph N/A Snow Light Snow
2:35 AM 17.6 °F 3.7 °F 10.4 °F 73% 30.16 in 9.0 mi North 13.8 mph - N/A   Overcast
2:55 AM 17.6 °F 5.0 °F 10.4 °F 73% 30.16 in 10.0 mi North 11.5 mph 17.3 mph N/A   Overcast
3:15 AM 15.8 °F 1.4 °F 8.6 °F 73% 30.17 in 10.0 mi North 13.8 mph - N/A   Overcast
3:35 AM 15.8 °F 2.7 °F 8.6 °F 73% 30.17 in 10.0 mi North 11.5 mph - N/A   Overcast
3:55 AM 15.8 °F 2.1 °F 8.6 °F 73% 30.17 in 10.0 mi NNW 12.7 mph - N/A   Overcast
4:15 AM 15.8 °F 1.4 °F 8.6 °F 73% 30.17 in 10.0 mi NNW 13.8 mph - N/A   Overcast
4:35 AM 15.8 °F 0.9 °F 8.6 °F 73% 30.17 in 10.0 mi NNW 15.0 mph 20.7 mph N/A Snow Light Snow
4:55 AM 15.8 °F 0.9 °F 6.8 °F 68% 30.17 in 10.0 mi NNW 15.0 mph - N/A Snow Light Snow
5:15 AM 15.8 °F 2.7 °F 6.8 °F 68% 30.16 in 10.0 mi NNW 11.5 mph 17.3 mph N/A Snow Light Snow
5:35 AM 15.8 °F 5.1 °F 6.8 °F 68% 30.17 in 10.0 mi NNW 8.1 mph 16.1 mph N/A   Overcast
5:55 AM 15.8 °F 4.2 °F 8.6 °F 73% 30.17 in 10.0 mi NNW 9.2 mph - N/A   Overcast
6:15 AM 15.8 °F 6.1 °F 8.6 °F 73% 30.17 in 8.0 mi NNW 6.9 mph - N/A Snow Light Snow
6:35 AM 15.8 °F 3.4 °F 10.4 °F 79% 30.17 in 10.0 mi WNW 10.4 mph - N/A   Overcast
6:55 AM 15.8 °F 2.7 °F 10.4 °F 79% 30.16 in 10.0 mi WNW 11.5 mph - N/A   Overcast
7:15 AM 14.0 °F 2.0 °F 8.6 °F 79% 30.16 in 10.0 mi West 9.2 mph - N/A   Overcast
7:35 AM 14.0 °F 2.0 °F 8.6 °F 79% 30.17 in 10.0 mi West 9.2 mph - N/A   Overcast
7:55 AM 14.0 °F 3.9 °F 8.6 °F 79% 30.16 in 10.0 mi WNW 6.9 mph - N/A   Overcast
8:15 AM 12.2 °F 2.9 °F 6.8 °F 79% 30.16 in 10.0 mi West 5.8 mph - N/A Snow Light Snow
8:35 AM 12.2 °F 2.9 °F 6.8 °F 79% 30.17 in 10.0 mi West 5.8 mph - N/A   Mostly Cloudy
8:55 AM 12.2 °F 1.7 °F 6.8 °F 79% 30.17 in 10.0 mi WNW 6.9 mph - N/A   Partly Cloudy
9:15 AM 12.2 °F 1.7 °F 6.8 °F 79% 30.17 in 10.0 mi West 6.9 mph - N/A   Clear
9:35 AM 14.0 °F 5.1 °F 8.6 °F 79% 30.17 in 10.0 mi West 5.8 mph - N/A   Clear
9:55 AM 15.8 °F 6.1 °F 8.6 °F 73% 30.17 in 10.0 mi WNW 6.9 mph - N/A   Clear
10:15 AM 15.8 °F 3.4 °F 8.6 °F 73% 30.17 in 10.0 mi West 10.4 mph - N/A   Clear
10:35 AM 17.6 °F 6.4 °F 8.6 °F 68% 30.17 in 10.0 mi WNW 9.2 mph - N/A   Scattered Clouds
10:55 AM 17.6 °F 4.3 °F 8.6 °F 68% 30.17 in 10.0 mi West 12.7 mph - N/A   Mostly Cloudy
11:15 AM 17.6 °F 6.4 °F 6.8 °F 63% 30.15 in 10.0 mi West 9.2 mph - N/A   Partly Cloudy
11:35 AM 19.4 °F 7.9 °F 6.8 °F 58% 30.13 in 10.0 mi West 10.4 mph - N/A   Clear
11:55 AM 19.4 °F 10.4 °F 6.8 °F 58% 30.10 in 10.0 mi West 6.9 mph - N/A   Clear
12:15 PM 21.2 °F 13.6 °F 6.8 °F 54% 30.08 in 10.0 mi Variable 5.8 mph 11.5 mph N/A   Clear
12:35 PM 21.2 °F 12.6 °F 6.8 °F 54% 30.06 in 10.0 mi SW 6.9 mph - N/A   Clear
12:55 PM 23.0 °F 12.4 °F 6.8 °F 50% 30.05 in 10.0 mi SSW 10.4 mph - N/A   Clear
1:15 PM 24.8 °F 13.4 °F 5.0 °F 43% 30.04 in 10.0 mi WSW 12.7 mph - N/A   Clear
1:35 PM 24.8 °F 14.6 °F 3.2 °F 40% 30.03 in 10.0 mi SW 10.4 mph - N/A   Clear
1:55 PM 26.6 °F 16.2 °F 3.2 °F 37% 30.01 in 10.0 mi SW 11.5 mph 18.4 mph N/A   Partly Cloudy
2:15 PM 26.6 °F 16.8 °F 3.2 °F 37% 30.00 in 10.0 mi SW 10.4 mph 18.4 mph N/A   Mostly Cloudy
2:35 PM 26.6 °F 15.2 °F 3.2 °F 37% 29.99 in 10.0 mi SW 13.8 mph - N/A   Overcast
2:55 PM 28.4 °F 17.5 °F 3.2 °F 34% 29.97 in 10.0 mi SSW 13.8 mph - N/A   Mostly Cloudy
3:15 PM 26.6 °F 13.8 °F 5.0 °F 40% 29.97 in 10.0 mi SSW 17.3 mph 24.2 mph N/A   Overcast
3:35 PM 26.6 °F 14.3 °F 6.8 °F 43% 29.96 in 10.0 mi SSW 16.1 mph 23.0 mph N/A   Overcast
3:55 PM 24.8 °F 11.9 °F 6.8 °F 46% 29.95 in 10.0 mi SSW 16.1 mph - N/A   Overcast
4:15 PM 24.8 °F 11.1 °F 8.6 °F 50% 29.93 in 10.0 mi South 18.4 mph - N/A   Overcast
4:35 PM 24.8 °F 11.1 °F 8.6 °F 50% 29.92 in 10.0 mi South 18.4 mph - N/A   Overcast
4:55 PM 24.8 °F 12.4 °F 8.6 °F 50% 29.91 in 10.0 mi South 15.0 mph 21.9 mph N/A   Overcast
5:15 PM 24.8 °F 11.5 °F 8.6 °F 50% 29.90 in 10.0 mi South 17.3 mph 23.0 mph N/A   Overcast
5:35 PM 24.8 °F 11.5 °F 8.6 °F 50% 29.90 in 10.0 mi SSW 17.3 mph - N/A   Overcast
5:55 PM 24.8 °F 11.5 °F 8.6 °F 50% 29.89 in 10.0 mi SSW 17.3 mph - N/A   Overcast
6:15 PM 24.8 °F 12.4 °F 8.6 °F 50% 29.88 in 10.0 mi SSW 15.0 mph 21.9 mph N/A   Overcast
6:35 PM 26.6 °F 14.3 °F 8.6 °F 47% 29.87 in 10.0 mi SSW 16.1 mph - N/A   Mostly Cloudy
6:55 PM 26.6 °F 13.4 °F 10.4 °F 51% 29.84 in 10.0 mi South 18.4 mph - N/A   Mostly Cloudy
7:15 PM 26.6 °F 14.3 °F 10.4 °F 51% 29.82 in 10.0 mi SSW 16.1 mph - N/A   Mostly Cloudy
7:35 PM 26.6 °F 13.8 °F 10.4 °F 51% 29.82 in 10.0 mi SSW 17.3 mph - N/A   Mostly Cloudy
7:55 PM 26.6 °F 13.8 °F 12.2 °F 55% 29.80 in 10.0 mi SSW 17.3 mph - N/A   Overcast
8:15 PM 28.4 °F 16.2 °F 12.2 °F 51% 29.80 in 10.0 mi SSW 17.3 mph - N/A   Overcast
8:35 PM 28.4 °F 16.2 °F 14.0 °F 55% 29.78 in 10.0 mi SSW 17.3 mph 24.2 mph N/A   Overcast
8:55 PM 28.4 °F 17.0 °F 15.8 °F 59% 29.77 in 10.0 mi SSW 15.0 mph 24.2 mph N/A   Mostly Cloudy
9:15 PM 28.4 °F 17.5 °F 15.8 °F 59% 29.77 in 10.0 mi SSW 13.8 mph - N/A   Overcast
9:35 PM 30.2 °F 18.5 °F 17.6 °F 60% 29.76 in 10.0 mi SSW 17.3 mph 23.0 mph N/A   Overcast
9:55 PM 30.2 °F 19.3 °F 17.6 °F 60% 29.76 in 10.0 mi SSW 15.0 mph 23.0 mph N/A   Mostly Cloudy
10:15 PM 30.2 °F 19.3 °F 19.4 °F 64% 29.75 in 10.0 mi SW 15.0 mph 20.7 mph N/A   Scattered Clouds
10:35 PM 30.2 °F 19.8 °F 19.4 °F 64% 29.74 in 10.0 mi SSW 13.8 mph 20.7 mph N/A   Clear
10:55 PM 30.2 °F 19.8 °F 19.4 °F 64% 29.74 in 10.0 mi SW 13.8 mph - N/A   Clear
11:15 PM 28.4 °F 19.7 °F 19.4 °F 69% 29.74 in 10.0 mi WSW 9.2 mph 16.1 mph N/A   Clear
11:35 PM 30.2 °F 21.9 °F 21.2 °F 69% 29.73 in 10.0 mi WSW 9.2 mph 16.1 mph N/A   Partly Cloudy
11:55 PM 28.4 °F 20.4 °F 21.2 °F 74% 29.72 in 10.0 mi SW 8.1 mph - N/A   Clear